Notices

What's New in latest Release from April 7th, 2021:

- Updated Glossary, including Speed of Maximum Gust, and Total Hourly Precipitation

- Updated national and regional climate services offices contacts and prices information

- Addition of station inventory lists for 1981-2010, 1971-2000, and 1961-1990 Normals.

If you haven't already, please take our survey and provide feedback about our website: https://eccc.sondage-survey.ca/f/LanguageSelection.aspx?s=442ca660-fcf1-47c0-95a9-59707d6fd709

Hourly Data Report for October 31, 2019

SAINT JOHN A
NEW BRUNSWICK
Current Station Operator: NAVCAN

45°18'58.000" N
65°53'24.000" W
108.80 m
8104901
71609
YSJ

Download Data

Hourly Data (October 2019)
Hourly Data Report for October 31, 2019
TIME
LST
Temp Definition
°C
Dew Point Definition
°C
Rel Hum Definition
%
Precip. Amount Definition
mm

Wind Dir Definition
10's deg

Wind Spd Definition
km/h
Visibility Definition
km
Stn Press Definition
kPa
Hmdx Definition


Wind Chill Definition


Weather Definition


00:00 11.1 10.9 99   19 10 0.8 101.11     Fog
01:00 11.2 11.2 100   18 7 1.2 101.06     Fog
02:00 11.3 11.3 100   20 13 1.6 101.04     Drizzle,Fog
03:00 11.2 11.2 100   19 18 2.4 100.95     Drizzle,Fog
04:00 11.2 11.2 100   18 13 8.1 100.88     Drizzle,Fog
05:00 11.4 11.0 97   17 13 8.1 100.82     Drizzle,Fog
06:00 11.4 11.2 98   17 18 4.8 100.75     Drizzle,Fog
07:00 11.5 11.2 98   14 15 4.8 100.61     Rain,Fog
08:00 11.2 10.9 98   18 18 4.8 100.61     Rain,Fog
09:00 12.8 12.6 99   18 27 4.8 100.49     Rain,Fog
10:00 13.7 13.5 99   19 36 4.8 100.45     Rain,Fog
11:00 13.9 13.7 99   19 37 4.8 100.36     Rain,Fog
12:00 14.1 14.0 99   20 42 3.2 100.28     Moderate Rain,Fog
13:00 14.1 14.0 99   20 37 3.2 100.17     Moderate Rain,Fog
14:00 13.9 13.9 100   20 37 3.2 100.02     Moderate Rain,Fog
15:00 14.3 14.3 100   20 46 3.2 99.91     Moderate Rain,Fog
16:00 14.3 14.3 100   20 43 3.2 99.86     Rain,Fog
17:00 14.3 14.3 100   20 45 2.4 99.82     Heavy Rain,Fog
18:00 14.3 14.3 100   20 44 4.8 99.77     Rain,Fog
19:00 14.5 14.5 100   21 48 4.8 99.75     Rain,Fog
20:00 14.3 14.3 100   20 43 4.8 99.67     Rain,Fog
21:00 14.8 14.8 100   20 51 4.8 99.61     Rain,Fog
22:00 15.2 15.2 100   20 47 4.8 99.57     Rain,Fog
23:00 15.5 14.4 93   20 48 4.8 99.48     Rain,Fog

Notes on Data Quality.

Legend

  • E = Estimated
  • M = Missing
  • NA = Not Available*
  • [empty] = Indicates an unobserved value
Date modified: